DW2128 Weather Reports


Display with metric or nautical units.
time (UTC)temp
F
wind
direction
speed
MPH
gust
MPH
rain 1hr
in
rain 24hr
in
rain mn
in
humidity
%
barometer
mb
20260505213531 61 185 0.0 0.0 0.00 0.00 0.00 63 1014.1
20260505213341 61 185 0.0 0.0 0.00 0.00 0.00 63 1014.2
20260505212055 60 185 0.0 0.0 0.00 0.00 0.00 62 1014.2
20260505211838 60 185 0.0 0.0 0.00 0.00 0.00 62 1014.1
20260505210533 60 185 0.0 0.0 0.00 0.00 0.00 62 1014.1
20260505210337 60 185 0.0 0.0 0.00 0.00 0.00 62 1014.1
20260505205052 61 184 0.0 0.0 0.00 0.00 0.00 60 1014.1
20260505204858 61 184 0.0 0.0 0.00 0.00 0.00 60 1014.1
20260505203530 61 184 0.0 0.0 0.00 0.00 0.00 60 1014.1
20260505203354 61 184 0.0 0.0 0.00 0.00 0.00 60 1014.1
20260505202026 61 184 0.0 0.0 0.00 0.00 0.00 60 1014.1
20260505201830 61 184 0.0 0.0 0.00 0.00 0.00 60 1014.3
20260505200523 61 183 0.0 0.0 0.00 0.00 0.00 61 1014.3
20260505200331 60 182 0.0 0.0 0.00 0.00 0.00 61 1014.4
20260505195045 60 182 0.0 0.0 0.00 0.00 0.00 61 1014.4
20260505194832 60 182 0.0 0.0 0.00 0.00 0.00 61 1014.6
20260505193526 59 184 0.0 0.0 0.00 0.00 0.00 62 1014.6
20260505193331 59 184 1.0 0.0 0.00 0.00 0.00 62 1014.5
20260505192028 60 183 2.0 0.0 0.00 0.00 0.00 62 1014.5
20260505191857 60 39 1.0 0.0 0.00 0.00 0.00 61 1014.3
20260505190530 60 13 1.0 0.0 0.00 0.00 0.00 64 1014.3
20260505190336 59 13 1.0 0.0 0.00 0.00 0.00 64 1014.2
20260505185028 59 13 3.0 0.0 0.00 0.00 0.00 65 1014.2
20260505184833 59 13 2.0 0.0 0.00 0.00 0.00 64 1014.3
20260505183547 59 360 2.0 0.0 0.00 0.00 0.00 63 1014.3
20260505183337 59 360 2.0 0.0 0.00 0.00 0.00 64 1014.3
20260505182030 58 342 0.0 0.0 0.00 0.00 0.00 63 1014.3
20260505181854 58 342 0.0 0.0 0.00 0.00 0.00 64 1014.2
20260505180532 58 240 0.0 0.0 0.00 0.00 0.00 62 1014.2
20260505180336 58 240 0.0 0.0 0.00 0.00 0.00 62 1014.1
20260505175030 58 240 0.0 0.0 0.00 0.00 0.00 63 1014.1
20260505174837 58 240 0.0 0.0 0.00 0.00 0.00 63 1013.9
20260505173531 58 241 0.0 0.0 0.00 0.00 0.00 62 1013.9
20260505173336 58 241 0.0 0.0 0.00 0.00 0.00 62 1013.8
20260505172030 58 242 0.0 0.0 0.00 0.00 0.00 63 1013.8
20260505171835 58 242 0.0 0.0 0.00 0.00 0.00 63 1013.7
20260505170529 57 242 0.0 0.0 0.00 0.00 0.00 63 1013.7
20260505170338 57 242 0.0 0.0 0.00 0.00 0.00 63 1013.7
20260505165032 57 242 0.0 0.0 0.00 0.00 0.00 65 1013.7
20260505164838 57 242 0.0 0.0 0.00 0.00 0.00 64 1013.6
20260505163532 57 239 0.0 0.0 0.00 0.00 0.00 65 1013.6
20260505163341 57 239 0.0 0.0 0.00 0.00 0.00 65 1013.6
20260505162035 57 239 0.0 0.0 0.00 0.00 0.00 67 1013.6
20260505161839 56 239 0.0 0.0 0.00 0.00 0.00 67 1013.6
20260505160533 56 239 0.0 0.0 0.00 0.00 0.00 66 1013.6
20260505160359 56 239 0.0 0.0 0.00 0.00 0.00 67 1013.6
20260505153327 55 238 0.0 0.0 0.00 0.00 0.00 68 1013.4
20260505152021 55 239 0.0 0.0 0.00 0.00 0.00 68 1013.4
20260505151828 55 239 0.0 0.0 0.00 0.00 0.00 68 1013.3
20260505150523 55 241 0.0 0.0 0.00 0.00 0.00 68 1013.3
20260505150332 55 241 0.0 0.0 0.00 0.00 0.00 69 1013.3
20260505140530 54 242 0.0 0.0 0.00 0.00 0.00 70 1012.9
20260505140335 54 242 0.0 0.0 0.00 0.00 0.00 70 1012.8
20260505125029 53 242 0.0 0.0 0.00 0.00 0.00 70 1012.6
20260505124834 54 242 0.0 0.0 0.00 0.00 0.00 70 1012.6
20260505123528 54 242 0.0 0.0 0.00 0.00 0.00 70 1012.6
20260505123336 54 242 0.0 0.0 0.00 0.00 0.00 70 1012.6
20260505122030 53 242 0.0 0.0 0.00 0.00 0.00 70 1012.6
20260505121835 53 242 0.0 0.0 0.00 0.00 0.00 70 1012.9
20260505120530 54 242 0.0 0.0 0.00 0.00 0.00 70 1012.9
20260505120335 54 242 0.0 0.0 0.00 0.00 0.00 69 1012.9
20260505115050 54 242 0.0 0.0 0.00 0.00 0.00 69 1012.9
20260505114838 54 242 0.0 0.0 0.00 0.00 0.00 69 1013.0
20260505113531 54 242 0.0 0.0 0.00 0.00 0.00 69 1013.0
20260505113340 54 242 0.0 0.0 0.00 0.00 0.00 69 1012.8
20260505112035 54 242 0.0 0.0 0.00 0.00 0.00 68 1012.8
20260505111823 54 242 0.0 0.0 0.00 0.00 0.00 68 1012.9
20260505110517 54 242 0.0 0.0 0.00 0.00 0.00 67 1012.9
20260505110345 54 242 0.0 0.0 0.00 0.00 0.00 67 1012.8
20260505102022 54 242 0.0 0.0 0.00 0.00 0.00 65 1012.8
20260505101828 54 242 0.0 0.0 0.00 0.00 0.00 65 1013.0
20260505100522 54 242 1.0 0.0 0.00 0.00 0.00 65 1013.0
20260505100328 54 242 1.0 0.0 0.00 0.00 0.00 65 1013.0
20260505095022 54 246 0.0 0.0 0.00 0.00 0.00 65 1013.0
20260505094830 54 246 0.0 0.0 0.00 0.00 0.00 64 1013.1
20260505093524 54 246 0.0 0.0 0.00 0.00 0.00 64 1013.1
20260505093329 54 246 0.0 0.0 0.00 0.00 0.00 64 1013.1
20260505092043 55 246 0.0 0.0 0.00 0.00 0.00 63 1013.1
20260505091826 55 246 0.0 0.0 0.00 0.00 0.00 62 1013.3
20260505090526 55 246 0.0 0.0 0.00 0.00 0.00 62 1013.3
20260505090336 55 246 0.0 0.0 0.00 0.00 0.00 62 1013.5
20260505085031 55 246 0.0 0.0 0.00 0.00 0.00 62 1013.5
20260505084835 55 246 0.0 0.0 0.00 0.00 0.00 63 1013.6
20260505083532 55 246 0.0 0.0 0.00 0.00 0.00 63 1013.6
20260505083323 55 246 0.0 0.0 0.00 0.00 0.00 63 1013.6
20260505082021 55 259 0.0 0.0 0.00 0.00 0.00 66 1013.6
20260505081824 55 259 0.0 0.0 0.00 0.00 0.00 66 1013.6
20260505080519 55 259 0.0 0.0 0.00 0.00 0.00 68 1013.6
20260505080327 55 259 0.0 0.0 0.00 0.00 0.00 68 1013.7
20260505075042 55 259 0.0 0.0 0.00 0.00 0.00 69 1013.7
20260505074829 55 259 0.0 0.0 0.00 0.00 0.00 69 1013.6
20260505073559 55 259 0.0 0.0 0.00 0.00 0.00 72 1013.6
20260505073327 55 259 0.0 0.0 0.00 0.00 0.00 72 1013.6
20260505072021 56 258 0.0 0.0 0.00 0.00 0.00 74 1013.6
20260505071829 56 258 0.0 0.0 0.00 0.00 0.00 73 1013.4
20260505070523 56 258 0.0 0.0 0.00 0.00 0.00 72 1013.4
20260505070353 56 258 0.0 0.0 0.00 0.00 0.00 72 1013.5
20260505065026 56 258 0.0 0.0 0.00 0.00 0.00 72 1013.5
20260505064830 56 258 0.0 0.0 0.00 0.00 0.00 72 1013.5
20260505063545 55 258 0.0 0.0 0.00 0.00 0.00 72 1013.5
20260505063329 56 258 0.0 0.0 0.00 0.00 0.00 72 1013.2
20260505062024 56 258 0.0 0.0 0.00 0.00 0.00 72 1013.2
20260505061833 56 258 0.0 0.0 0.00 0.00 0.00 71 1013.2
20260505060527 56 258 0.0 0.0 0.00 0.00 0.00 72 1013.2
20260505060331 56 258 0.0 0.0 0.00 0.00 0.00 72 1013.4
20260505055025 57 258 0.0 0.0 0.00 0.00 0.00 70 1013.4
20260505054829 57 258 0.0 0.0 0.00 0.00 0.00 70 1013.6
20260505053523 57 258 0.0 0.0 0.00 0.00 0.00 69 1013.6
20260505053332 57 258 0.0 0.0 0.00 0.00 0.00 69 1013.9
20260505052029 57 258 0.0 0.0 0.00 0.00 0.00 68 1013.9
20260505051835 57 258 0.0 0.0 0.00 0.00 0.00 68 1013.8
20260505050530 57 258 0.0 0.0 0.00 0.00 0.00 68 1013.8
20260505050333 57 258 0.0 0.0 0.00 0.00 0.00 68 1013.6
20260505040530 59 250 0.0 0.0 0.00 0.00 0.00 61 1013.2
20260505040339 59 250 0.0 0.0 0.00 0.00 0.00 61 1013.0
20260505035034 59 250 0.0 0.0 0.00 0.00 0.00 59 1013.0
20260505034900 59 250 0.0 0.0 0.00 0.00 0.00 59 1012.6
20260505033533 59 249 0.0 0.0 0.00 0.00 0.00 58 1012.6
20260505033322 59 249 0.0 0.0 0.00 0.00 0.00 57 1012.6
20260505032018 59 355 0.0 0.0 0.00 0.00 0.00 57 1012.6
20260505031825 59 355 0.0 0.0 0.00 0.00 0.00 57 1012.6
20260505030541 59 355 0.0 0.0 0.00 0.00 0.00 57 1012.6
20260505030323 60 355 0.0 0.0 0.00 0.00 0.00 56 1012.6
20260505025020 60 355 0.0 0.0 0.00 0.00 0.00 59 1012.6
20260505024849 60 355 0.0 0.0 0.00 0.00 0.00 58 1012.5
20260505023522 60 339 0.0 0.0 0.00 0.00 0.00 58 1012.5
20260505023348 60 342 0.0 0.0 0.00 0.00 0.00 58 1012.4
20260505022022 60 9 1.0 0.0 0.00 0.00 0.00 59 1012.4
20260505021847 60 329 2.0 0.0 0.00 0.00 0.00 58 1012.5
20260505020541 61 15 1.0 0.0 0.00 0.00 0.00 57 1012.5
20260505020328 61 15 1.0 0.0 0.00 0.00 0.00 56 1012.5
20260505015023 61 288 1.0 0.0 0.00 0.00 0.00 54 1012.5
20260505014828 61 276 1.0 0.0 0.00 0.00 0.00 54 1012.4
20260505013523 61 300 0.0 0.0 0.00 0.00 0.00 55 1012.4
20260505013327 62 5 0.0 0.0 0.00 0.00 0.00 55 1012.6
20260505012021 62 349 1.0 0.0 0.00 0.00 0.00 54 1012.6
20260505011831 62 315 1.0 0.0 0.00 0.00 0.00 55 1012.6
20260505010525 63 9 1.0 0.0 0.00 0.00 0.00 54 1012.6
20260505010329 63 5 1.0 0.0 0.00 0.00 0.00 53 1012.6
20260505005024 63 234 0.0 0.0 0.00 0.00 0.00 54 1012.6
20260505004828 63 244 1.0 0.0 0.00 0.00 0.00 54 1012.7
20260505003524 63 281 1.0 0.0 0.00 0.00 0.00 55 1012.7
20260505003333 63 266 1.0 0.0 0.00 0.00 0.00 56 1012.7
20260505002048 63 244 1.0 0.0 0.00 0.00 0.00 55 1012.7
20260505001832 63 244 1.0 0.0 0.00 0.00 0.00 55 1012.6
20260505000528 64 240 1.0 0.0 0.00 0.00 0.00 53 1012.6
20260505000334 65 240 1.0 0.0 0.00 0.00 0.00 52 1012.6
20260504235028 67 11 1.0 0.0 0.00 0.00 0.00 51 1012.6
20260504234836 66 13 1.0 0.0 0.00 0.00 0.00 51 1012.6
20260504233533 63 318 0.0 0.0 0.00 0.00 0.00 54 1012.5
20260504233337 63 336 0.0 0.0 0.00 0.00 0.00 54 1012.6
20260504232031 63 304 1.0 0.0 0.00 0.00 0.00 55 1012.6
20260504231841 63 304 1.0 0.0 0.00 0.00 0.00 54 1012.6
20260504230535 63 22 1.0 0.0 0.00 0.00 0.00 53 1012.6
20260504230341 64 19 1.0 0.0 0.00 0.00 0.00 53 1012.6
20260504225035 64 234 0.0 0.0 0.00 0.00 0.00 52 1012.6
20260504224840 64 234 0.0 0.0 0.00 0.00 0.00 51 1012.6
20260504223555 64 219 1.0 0.0 0.00 0.00 0.00 51 1012.6
20260504223346 64 217 2.0 0.0 0.00 0.00 0.00 52 1012.7
20260504222023 64 244 1.0 0.0 0.00 0.00 0.00 50 1012.7
20260504221828 64 244 1.0 0.0 0.00 0.00 0.00 51 1012.7
20260504220526 64 234 2.0 0.0 0.00 0.00 0.00 52 1012.7
20260504220329 64 234 2.0 0.0 0.00 0.00 0.00 51 1013.0
20260504215026 64 250 4.0 0.0 0.00 0.00 0.00 52 1013.0
20260504214836 64 244 4.0 0.0 0.00 0.00 0.00 51 1013.1